Time,TemperatureF,DewpointF,PressureIn,WindDirection,WindDirectionDegrees,WindSpeedMPH,WindSpeedGustMPH,Humidity,HourlyPrecipIn,Conditions,Clouds,dailyrainin,SoftwareType,DateUTC
2013-02-07 00:00:00,36.0,23.0,30.37,NNE,20,7.0,8.0,58,-99.99,,,-99.99,,2013-02-07 05:00:00,
2013-02-07 00:21:00,36.0,23.0,30.37,NNE,20,7.0,8.0,58,-99.99,,,-99.99,,2013-02-07 05:21:00,
2013-02-07 00:31:00,36.0,23.0,30.37,NNE,20,7.0,8.0,58,-99.99,,,-99.99,,2013-02-07 05:31:00,
2013-02-07 00:42:00,36.0,23.0,30.37,NNE,20,7.0,8.0,58,-99.99,,,-99.99,,2013-02-07 05:42:00,
2013-02-07 00:52:00,36.0,23.0,30.37,NNE,20,7.0,8.0,58,-99.99,,,-99.99,,2013-02-07 05:52:00,
2013-02-07 01:00:00,35.0,26.0,30.39,NNW,330,3.0,3.0,68,-99.99,,,-99.99,,2013-02-07 06:00:00,
2013-02-07 01:22:00,35.0,26.0,30.39,NNW,330,3.0,3.0,68,-99.99,,,-99.99,,2013-02-07 06:22:00,
2013-02-07 01:31:00,35.0,26.0,30.39,NNW,330,3.0,3.0,68,-99.99,,,-99.99,,2013-02-07 06:31:00,
2013-02-07 01:42:00,35.0,26.0,30.39,NNW,330,3.0,3.0,68,-99.99,,,-99.99,,2013-02-07 06:42:00,
2013-02-07 01:52:00,35.0,26.0,30.39,NNW,330,3.0,3.0,68,-99.99,,,-99.99,,2013-02-07 06:52:00,
2013-02-07 02:00:00,33.0,25.0,30.42,WNW,290,5.0,5.0,71,-99.99,,,-99.99,,2013-02-07 07:00:00,
2013-02-07 02:21:00,33.0,25.0,30.42,WNW,290,5.0,5.0,71,-99.99,,,-99.99,,2013-02-07 07:21:00,
2013-02-07 02:31:00,33.0,25.0,30.42,WNW,290,5.0,5.0,71,-99.99,,,-99.99,,2013-02-07 07:31:00,
2013-02-07 02:41:00,33.0,25.0,30.42,WNW,290,5.0,5.0,71,-99.99,,,-99.99,,2013-02-07 07:41:00,
2013-02-07 02:52:00,33.0,25.0,30.42,WNW,290,5.0,5.0,71,-99.99,,,-99.99,,2013-02-07 07:52:00,
2013-02-07 03:00:00,33.0,23.0,30.42,WNW,300,5.0,5.0,65,-99.99,,,-99.99,,2013-02-07 08:00:00,
2013-02-07 03:21:00,33.0,23.0,30.42,WNW,300,5.0,5.0,65,-99.99,,,-99.99,,2013-02-07 08:21:00,
2013-02-07 03:31:00,33.0,23.0,30.42,WNW,300,5.0,5.0,65,-99.99,,,-99.99,,2013-02-07 08:31:00,
2013-02-07 03:41:00,33.0,23.0,30.42,WNW,300,5.0,5.0,65,-99.99,,,-99.99,,2013-02-07 08:41:00,
2013-02-07 03:52:00,33.0,23.0,30.42,WNW,300,5.0,5.0,65,-99.99,,,-99.99,,2013-02-07 08:52:00,
2013-02-07 04:00:00,33.0,25.0,30.40,NNE,20,3.0,3.0,71,-99.99,,,-99.99,,2013-02-07 09:00:00,
2013-02-07 04:21:00,33.0,25.0,30.40,NNE,20,3.0,3.0,71,-99.99,,,-99.99,,2013-02-07 09:21:00,
2013-02-07 04:31:00,33.0,25.0,30.40,NNE,20,3.0,3.0,71,-99.99,,,-99.99,,2013-02-07 09:31:00,
2013-02-07 04:41:00,33.0,25.0,30.40,NNE,20,3.0,3.0,71,-99.99,,,-99.99,,2013-02-07 09:41:00,
2013-02-07 04:51:00,33.0,25.0,30.40,NNE,20,3.0,3.0,71,-99.99,,,-99.99,,2013-02-07 09:51:00,
2013-02-07 05:00:00,33.0,28.0,30.41,NE,40,7.0,8.0,79,-99.99,,,-99.99,,2013-02-07 10:00:00,
2013-02-07 05:21:00,33.0,28.0,30.41,NE,40,7.0,8.0,79,-99.99,,,-99.99,,2013-02-07 10:21:00,
2013-02-07 05:31:00,33.0,28.0,30.41,NE,40,7.0,8.0,79,-99.99,,,-99.99,,2013-02-07 10:31:00,
2013-02-07 05:41:00,33.0,28.0,30.41,NE,40,7.0,8.0,79,-99.99,,,-99.99,,2013-02-07 10:41:00,
2013-02-07 05:51:00,33.0,28.0,30.41,NE,40,7.0,8.0,79,-99.99,,,-99.99,,2013-02-07 10:51:00,
2013-02-07 06:00:00,33.0,25.0,30.42,ENE,60,8.0,9.0,71,-99.99,,,-99.99,,2013-02-07 11:00:00,
2013-02-07 06:22:00,33.0,25.0,30.42,ENE,60,8.0,9.0,71,-99.99,,,-99.99,,2013-02-07 11:22:00,
2013-02-07 06:32:00,33.0,25.0,30.42,ENE,60,8.0,9.0,71,-99.99,,,-99.99,,2013-02-07 11:32:00,
2013-02-07 06:43:00,33.0,25.0,30.42,ENE,60,8.0,9.0,71,-99.99,,,-99.99,,2013-02-07 11:43:00,
2013-02-07 06:52:00,33.0,25.0,30.42,ENE,60,8.0,9.0,71,-99.99,,,-99.99,,2013-02-07 11:52:00,
2013-02-07 07:00:00,33.0,23.0,30.45,East,80,6.0,7.0,68,-99.99,,,-99.99,,2013-02-07 12:00:00,
2013-02-07 07:11:00,33.0,23.0,30.45,East,80,6.0,7.0,68,-99.99,,,-99.99,,2013-02-07 12:11:00,
2013-02-07 07:21:00,33.0,23.0,30.45,East,80,6.0,7.0,68,-99.99,,,-99.99,,2013-02-07 12:21:00,
2013-02-07 07:32:00,33.0,23.0,30.45,East,80,6.0,7.0,68,-99.99,,,-99.99,,2013-02-07 12:32:00,
2013-02-07 07:41:00,33.0,23.0,30.45,East,80,6.0,7.0,68,-99.99,,,-99.99,,2013-02-07 12:41:00,
2013-02-07 07:52:00,33.0,23.0,30.45,East,80,6.0,7.0,68,-99.99,,,-99.99,,2013-02-07 12:52:00,
2013-02-07 08:00:00,33.0,22.0,30.46,East,80,8.0,9.0,64,-99.99,,,-99.99,,2013-02-07 13:00:00,
2013-02-07 08:21:00,33.0,22.0,30.46,East,80,8.0,9.0,64,-99.99,,,-99.99,,2013-02-07 13:21:00,
2013-02-07 08:31:00,33.0,22.0,30.46,East,80,8.0,9.0,64,-99.99,,,-99.99,,2013-02-07 13:31:00,
2013-02-07 08:41:00,33.0,22.0,30.46,East,80,8.0,9.0,64,-99.99,,,-99.99,,2013-02-07 13:41:00,
2013-02-07 08:51:00,33.0,22.0,30.46,East,80,8.0,9.0,64,-99.99,,,-99.99,,2013-02-07 13:51:00,
2013-02-07 09:00:00,33.0,21.0,30.47,ENE,70,8.0,9.0,62,-99.99,,,-99.99,,2013-02-07 14:00:00,
2013-02-07 09:21:00,33.0,21.0,30.47,ENE,70,8.0,9.0,62,-99.99,,,-99.99,,2013-02-07 14:21:00,
2013-02-07 09:31:00,33.0,21.0,30.47,ENE,70,8.0,9.0,62,-99.99,,,-99.99,,2013-02-07 14:31:00,
2013-02-07 09:41:00,33.0,21.0,30.47,ENE,70,8.0,9.0,62,-99.99,,,-99.99,,2013-02-07 14:41:00,
2013-02-07 09:52:00,33.0,21.0,30.47,ENE,70,8.0,9.0,62,-99.99,,,-99.99,,2013-02-07 14:52:00,
2013-02-07 10:00:00,34.0,21.0,30.48,ENE,70,6.0,7.0,58,-99.99,,,-99.99,,2013-02-07 15:00:00,
2013-02-07 10:21:00,34.0,21.0,30.48,ENE,70,6.0,7.0,58,-99.99,,,-99.99,,2013-02-07 15:21:00,
2013-02-07 10:31:00,34.0,21.0,30.48,ENE,70,6.0,7.0,58,-99.99,,,-99.99,,2013-02-07 15:31:00,
2013-02-07 10:41:00,34.0,21.0,30.48,ENE,70,6.0,7.0,58,-99.99,,,-99.99,,2013-02-07 15:41:00,
2013-02-07 10:52:00,34.0,21.0,30.48,ENE,70,6.0,7.0,58,-99.99,,,-99.99,,2013-02-07 15:52:00,
2013-02-07 11:00:00,34.0,22.0,30.46,ESE,110,13.0,14.0,60,-99.99,,,-99.99,,2013-02-07 16:00:00,
2013-02-07 11:21:00,34.0,22.0,30.46,ESE,110,13.0,14.0,60,-99.99,,,-99.99,,2013-02-07 16:21:00,
2013-02-07 11:31:00,34.0,22.0,30.46,ESE,110,13.0,14.0,60,-99.99,,,-99.99,,2013-02-07 16:31:00,
2013-02-07 11:41:00,34.0,22.0,30.46,ESE,110,13.0,14.0,60,-99.99,,,-99.99,,2013-02-07 16:41:00,
2013-02-07 11:52:00,34.0,22.0,30.46,ESE,110,13.0,14.0,60,-99.99,,,-99.99,,2013-02-07 16:52:00,
2013-02-07 12:00:00,35.0,23.0,30.43,East,100,11.0,13.0,59,-99.99,,,-99.99,,2013-02-07 17:00:00,
2013-02-07 12:21:00,35.0,23.0,30.43,East,100,11.0,13.0,59,-99.99,,,-99.99,,2013-02-07 17:21:00,
2013-02-07 12:31:00,35.0,23.0,30.43,East,100,11.0,13.0,59,-99.99,,,-99.99,,2013-02-07 17:31:00,
2013-02-07 12:41:00,35.0,23.0,30.43,East,100,11.0,13.0,59,-99.99,,,-99.99,,2013-02-07 17:41:00,
2013-02-07 12:52:00,35.0,23.0,30.43,East,100,11.0,13.0,59,-99.99,,,-99.99,,2013-02-07 17:52:00,
2013-02-07 13:00:00,36.0,23.0,30.41,East,100,10.0,11.0,58,-99.99,,,-99.99,,2013-02-07 18:00:00,
2013-02-07 13:11:00,36.0,23.0,30.41,East,100,10.0,11.0,58,-99.99,,,-99.99,,2013-02-07 18:11:00,
2013-02-07 13:22:00,36.0,23.0,30.41,East,100,10.0,11.0,58,-99.99,,,-99.99,,2013-02-07 18:22:00,
2013-02-07 13:31:00,36.0,23.0,30.41,East,100,10.0,11.0,58,-99.99,,,-99.99,,2013-02-07 18:31:00,
2013-02-07 13:41:00,36.0,23.0,30.41,East,100,10.0,11.0,58,-99.99,,,-99.99,,2013-02-07 18:41:00,
2013-02-07 13:51:00,36.0,23.0,30.41,East,100,10.0,11.0,58,-99.99,,,-99.99,,2013-02-07 18:51:00,
2013-02-07 14:00:00,37.0,22.0,30.38,East,80,10.0,11.0,53,-99.99,,,-99.99,,2013-02-07 19:00:00,
2013-02-07 14:21:00,37.0,22.0,30.38,East,80,10.0,11.0,53,-99.99,,,-99.99,,2013-02-07 19:21:00,
2013-02-07 14:31:00,37.0,22.0,30.38,East,80,10.0,11.0,53,-99.99,,,-99.99,,2013-02-07 19:31:00,
2013-02-07 14:41:00,37.0,22.0,30.38,East,80,10.0,11.0,53,-99.99,,,-99.99,,2013-02-07 19:41:00,
2013-02-07 14:51:00,37.0,22.0,30.38,East,80,10.0,11.0,53,-99.99,,,-99.99,,2013-02-07 19:51:00,
2013-02-07 15:00:00,38.0,22.0,30.36,East,80,9.0,9.0,51,-99.99,,,-99.99,,2013-02-07 20:00:00,
2013-02-07 15:21:00,38.0,22.0,30.36,East,80,9.0,9.0,51,-99.99,,,-99.99,,2013-02-07 20:21:00,
2013-02-07 15:31:00,38.0,22.0,30.36,East,80,9.0,9.0,51,-99.99,,,-99.99,,2013-02-07 20:31:00,
2013-02-07 15:41:00,38.0,22.0,30.36,East,80,9.0,9.0,51,-99.99,,,-99.99,,2013-02-07 20:41:00,
2013-02-07 15:52:00,38.0,22.0,30.36,East,80,9.0,9.0,51,-99.99,,,-99.99,,2013-02-07 20:52:00,
2013-02-07 16:00:00,39.0,24.0,30.34,East,80,8.0,9.0,55,-99.99,,,-99.99,,2013-02-07 21:00:00,
2013-02-07 16:11:00,39.0,24.0,30.34,East,80,8.0,9.0,55,-99.99,,,-99.99,,2013-02-07 21:11:00,
2013-02-07 16:21:00,39.0,24.0,30.34,East,80,8.0,9.0,55,-99.99,,,-99.99,,2013-02-07 21:21:00,
2013-02-07 16:31:00,39.0,24.0,30.34,East,80,8.0,9.0,55,-99.99,,,-99.99,,2013-02-07 21:31:00,
2013-02-07 16:41:00,39.0,24.0,30.34,East,80,8.0,9.0,55,-99.99,,,-99.99,,2013-02-07 21:41:00,
2013-02-07 16:51:00,39.0,24.0,30.34,East,80,8.0,9.0,55,-99.99,,,-99.99,,2013-02-07 21:51:00,
2013-02-07 17:00:00,39.0,27.0,30.33,ESE,110,10.0,11.0,62,-99.99,,,-99.99,,2013-02-07 22:00:00,
2013-02-07 17:21:00,39.0,27.0,30.33,ESE,110,10.0,11.0,62,-99.99,,,-99.99,,2013-02-07 22:21:00,
2013-02-07 17:31:00,39.0,27.0,30.33,ESE,110,10.0,11.0,62,-99.99,,,-99.99,,2013-02-07 22:31:00,
2013-02-07 17:42:00,39.0,27.0,30.33,ESE,110,10.0,11.0,62,-99.99,,,-99.99,,2013-02-07 22:42:00,
2013-02-07 17:51:00,39.0,27.0,30.33,ESE,110,10.0,11.0,62,-99.99,,,-99.99,,2013-02-07 22:51:00,
2013-02-07 18:00:00,38.0,30.0,30.34,East,90,11.0,13.0,71,-99.99,,,-99.99,,2013-02-07 23:00:00,
2013-02-07 18:21:00,38.0,30.0,30.34,East,90,11.0,13.0,71,-99.99,,,-99.99,,2013-02-07 23:21:00,
2013-02-07 18:31:00,38.0,30.0,30.34,East,90,11.0,13.0,71,-99.99,,,-99.99,,2013-02-07 23:31:00,
2013-02-07 18:41:00,38.0,30.0,30.34,East,90,11.0,13.0,71,-99.99,,,-99.99,,2013-02-07 23:41:00,
2013-02-07 18:52:00,38.0,30.0,30.34,East,90,11.0,13.0,71,-99.99,,,-99.99,,2013-02-07 23:52:00,
2013-02-07 19:00:00,38.0,30.0,30.35,East,80,10.0,10.0,73,-99.99,,,-99.99,,2013-02-08 00:00:00,
2013-02-07 19:21:00,38.0,30.0,30.35,East,80,10.0,10.0,73,-99.99,,,-99.99,,2013-02-08 00:21:00,
2013-02-07 19:31:00,38.0,30.0,30.35,East,80,10.0,10.0,73,-99.99,,,-99.99,,2013-02-08 00:31:00,
2013-02-07 19:41:00,38.0,30.0,30.35,East,80,10.0,10.0,73,-99.99,,,-99.99,,2013-02-08 00:41:00,
2013-02-07 19:52:00,38.0,30.0,30.35,East,80,10.0,10.0,73,-99.99,,,-99.99,,2013-02-08 00:52:00,
2013-02-07 20:00:00,37.0,30.0,30.33,East,80,13.0,14.0,74,-99.99,,,-99.99,,2013-02-08 01:00:00,
2013-02-07 20:11:00,37.0,30.0,30.33,East,80,13.0,14.0,74,-99.99,,,-99.99,,2013-02-08 01:11:00,
2013-02-07 20:21:00,37.0,30.0,30.33,East,80,13.0,14.0,74,-99.99,,,-99.99,,2013-02-08 01:21:00,
2013-02-07 20:31:00,37.0,30.0,30.33,East,80,13.0,14.0,74,-99.99,,,-99.99,,2013-02-08 01:31:00,
2013-02-07 20:41:00,37.0,30.0,30.33,East,80,13.0,14.0,74,-99.99,,,-99.99,,2013-02-08 01:41:00,
2013-02-07 20:51:00,37.0,30.0,30.33,East,80,13.0,14.0,74,-99.99,,,-99.99,,2013-02-08 01:51:00,
2013-02-07 21:00:00,36.0,30.0,30.32,ENE,70,13.0,16.0,77,-99.99,,,-99.99,,2013-02-08 02:00:00,
2013-02-07 21:21:00,36.0,30.0,30.32,ENE,70,13.0,16.0,77,-99.99,,,-99.99,,2013-02-08 02:21:00,
2013-02-07 21:31:00,36.0,30.0,30.32,ENE,70,13.0,16.0,77,-99.99,,,-99.99,,2013-02-08 02:31:00,
2013-02-07 21:42:00,36.0,30.0,30.32,ENE,70,13.0,16.0,77,-99.99,,,-99.99,,2013-02-08 02:42:00,
2013-02-07 21:52:00,36.0,30.0,30.32,ENE,70,13.0,16.0,77,-99.99,,,-99.99,,2013-02-08 02:52:00,
2013-02-07 22:00:00,36.0,29.0,30.29,NE,50,16.0,18.0,75,-99.99,,,-99.99,,2013-02-08 03:00:00,
2013-02-07 22:11:00,36.0,29.0,30.29,NE,50,16.0,18.0,75,-99.99,,,-99.99,,2013-02-08 03:11:00,
2013-02-07 22:22:00,36.0,29.0,30.29,NE,50,16.0,18.0,75,-99.99,,,-99.99,,2013-02-08 03:22:00,
2013-02-07 22:31:00,36.0,29.0,30.29,NE,50,16.0,18.0,75,-99.99,,,-99.99,,2013-02-08 03:31:00,
2013-02-07 22:41:00,36.0,29.0,30.29,NE,50,16.0,18.0,75,-99.99,,,-99.99,,2013-02-08 03:41:00,
2013-02-07 22:51:00,36.0,29.0,30.29,NE,50,16.0,18.0,75,-99.99,,,-99.99,,2013-02-08 03:51:00,
2013-02-07 23:00:00,35.0,27.0,30.25,NE,50,16.0,18.0,72,-99.99,,,-99.99,,2013-02-08 04:00:00,
2013-02-07 23:11:00,35.0,27.0,30.25,NE,50,16.0,18.0,72,-99.99,,,-99.99,,2013-02-08 04:11:00,
2013-02-07 23:21:00,35.0,27.0,30.25,NE,50,16.0,18.0,72,-99.99,,,-99.99,,2013-02-08 04:21:00,
2013-02-07 23:31:00,35.0,27.0,30.25,NE,50,16.0,18.0,72,-99.99,,,-99.99,,2013-02-08 04:31:00,
2013-02-07 23:41:00,35.0,27.0,30.25,NE,50,16.0,18.0,72,-99.99,,,-99.99,,2013-02-08 04:41:00,
2013-02-07 23:51:00,35.0,27.0,30.25,NE,50,16.0,18.0,72,-99.99,,,-99.99,,2013-02-08 04:51:00,